Qianfan Jigui 02-07

operational
NORAD ID: 61558 Int'l Des: 2024-185 Owner: YUANX Country: CN Constellation: qianfan
LEOCIRCULARPOLAR

关于 Qianfan Jigui 02-07

正在加载描述...

实时位置

正在加载3D地球...

即将过境

高度历史

Altitude vs Time

uPlot chart will show altitude changes over time

两行轨道根数

1 61558U 24185G 26063.14228296 .00000595 00000-0 35451-3 0 9996
2 61558 88.9747 68.9584 0011920 69.3441 290.9018 14.05993676 80940
Epoch: Mar 4, 2026 • Age: 19 hours

当前状态

高度 883.1 km
速度 7.41 km/s
星下点 -25.55°S, 14.14°W
发射日期 Oct 15, 2024
运行时间 1.3 years
类型 internet

技术详情

分类 Payload
质量 267.00 kg
干质量 267.00 kg
总质量 267.00 kg
长度 0.30 m
直径 3.00 m
跨度 10.00 m
形状 Box+pan
制造商 GESIH/SECM
平台类型 Qianfan
阶段状态 In Orbit
所有者/国家 YUANX/CN

大型星座

Loading constellations...